Date,TemperatureHighF,TemperatureAvgF,TemperatureLowF,DewpointHighF,DewpointAvgF,DewpointLowF,HumidityHigh,HumidityAvg,HumidityLow,PressureMaxIn,PressureMinIn,WindSpeedMaxMPH,WindSpeedAvgMPH,GustSpeedMaxMPH,PrecipitationSumIn
2013-2-4,48,43,40,27,24,22,57,48,38,30.01,28.95,8,2,9,0.00
2013-2-5,65,46,31,38,31,26,86,60,31,29.98,29.87,7,2,14,0.00
2013-2-6,64,46,32,35,28,14,88,55,15,30.20,29.98,8,2,14,0.00
2013-2-7,45,40,34,38,33,25,92,78,55,30.26,30.01,7,1,10,0.68
2013-2-8,58,45,36,48,36,28,92,73,38,30.12,29.87,18,3,20,0.01
2013-2-9,60,40,24,29,24,19,91,61,22,30.33,30.10,7,2,12,0.00
2013-2-10,54,42,31,41,30,23,91,67,31,30.42,30.16,7,1,14,0.17
2013-2-11,58,50,42,54,48,40,93,91,87,30.17,29.95,9,2,20,0.10
2013-2-12,56,49,40,45,33,26,90,57,31,30.09,29.89,4,1,7,0.02
2013-2-13,49,43,32,44,39,29,92,86,64,29.90,29.64,11,2,20,0.04
2013-2-14,52,38,26,33,29,24,93,75,45,30.06,29.88,8,2,13,0.00
2013-2-15,61,43,25,38,30,23,93,65,33,30.10,29.91,11,2,16,0.00
2013-2-16,41,36,27,31,25,15,91,67,55,30.03,29.84,7,2,12,0.03
2013-2-17,41,32,25,17,10,7,67,41,26,30.28,30.03,19,6,25,0.01
2013-2-18,54,36,18,26,20,13,87,56,30,30.38,30.20,10,1,16,0.00
2013-2-19,53,42,33,42,30,12,91,65,25,30.21,29.86,16,4,21,0.16
2013-2-20,56,41,24,22,9,-4,76,33,9,30.11,30.00,17,3,19,0.00
2013-2-21,58,40,22,38,20,6,89,50,19,30.24,30.07,6,1,9,0.13
2013-2-22,40,38,36,37,36,35,93,91,84,30.29,30.12,5,1,7,0.35
2013-2-23,45,40,36,42,38,34,93,92,89,30.14,29.85,4,0,6,0.22
2013-2-24,64,48,33,41,32,20,94,60,19,30.01,29.85,10,2,17,0.00
2013-2-25,46,39,31,29,26,23,86,60,49,30.17,29.99,9,3,15,0.00
2013-2-26,38,35,32,37,32,26,93,90,66,30.08,29.61,8,2,13,1.46
2013-2-27,56,45,30,40,35,28,94,72,50,29.80,29.65,12,4,16,0.00
2013-2-28,47,40,27,34,26,23,88,61,41,29.90,29.72,14,4,26,0.00
2013-3-1,47,36,23,31,26,21,92,70,48,29.95,29.87,6,1,11,0.00
2013-3-2,47,38,29,34,29,21,91,71,51,29.94,29.82,9,2,12,0.02
2013-3-3,44,32,20,21,18,15,90,59,36,30.03,29.91,9,2,16,0.00
2013-3-4,56,36,17,26,17,10,90,53,16,30.16,30.02,8,2,11,0.00
2013-3-5,48,42,34,44,36,26,92,82,63,30.07,29.64,7,1,15,0.49
2013-3-6,46,38,31,33,23,19,75,56,43,30.12,29.66,16,7,29,0.01
2013-3-7,56,38,23,29,25,20,91,63,34,30.27,30.12,8,2,12,0.00
2013-3-8,58,41,23,25,22,14,89,52,18,30.32,30.20,9,2,13,0.00
2013-3-9,62,44,24,35,28,22,90,57,26,30.35,30.22,6,1,9,0.00
2013-3-10,66,49,32,38,34,29,91,61,29,30.28,30.14,10,2,12,0.00
2013-3-11,65,51,39,52,43,35,92,74,55,30.17,29.82,10,2,17,0.53
2013-3-12,65,55,42,54,43,27,93,67,28,29.98,29.72,11,3,15,0.76
2013-3-13,53,43,30,34,25,17,89,51,27,30.16,29.97,18,4,23,0.00
2013-3-14,53,39,26,22,16,8,72,41,18,30.30,30.16,13,3,20,0.00
2013-3-15,69,45,25,41,30,20,86,60,31,30.20,29.89,12,2,18,0.00
2013-3-16,78,65,53,47,44,40,66,47,33,29.90,29.68,17,6,23,0.00
2013-3-17,76,58,45,51,44,38,86,61,33,30.05,29.80,13,4,24,0.00
2013-3-18,44,40,38,38,37,35,92,89,79,30.11,29.88,7,3,14,0.58
2013-3-19,62,49,37,42,29,12,93,56,18,30.06,29.85,16,5,24,0.00
2013-3-20,56,48,41,24,14,9,46,27,17,30.09,29.79,11,3,16,0.00
2013-3-21,43,36,29,28,12,6,57,37,26,29.96,29.80,16,5,23,0.00
2013-3-22,52,37,23,26,18,14,80,49,26,30.08,29.96,8,2,14,0.00
2013-3-23,56,43,36,42,35,26,90,74,50,30.04,29.88,6,1,10,0.03
2013-3-24,44,41,38,41,39,36,92,90,86,29.93,29.55,10,3,13,0.84
2013-3-25,44,39,33,36,27,18,93,65,37,29.91,29.55,16,6,23,0.08
2013-3-26,45,38,25,26,23,20,88,57,38,30.20,29.90,13,3,16,0.00
2013-3-27,52,38,23,27,22,21,90,57,31,30.27,30.17,8,2,11,0.00
2013-3-28,58,41,23,28,22,17,91,53,21,30.31,30.18,13,2,14,0.00
2013-3-29,62,46,25,37,28,22,90,55,23,30.34,30.18,7,2,16,0.00
2013-3-30,64,52,43,46,42,37,92,72,42,30.22,30.02,8,2,14,0.23
2013-3-31,70,56,48,56,50,43,92,82,53,30.03,29.79,13,3,21,0.00
2013-4-1,69,59,43,53,42,32,93,60,31,29.95,29.81,17,4,20,0.00
2013-4-2,64,54,40,33,25,13,68,35,16,30.12,29.95,11,4,21,0.00
2013-4-3,59,51,43,32,22,15,56,32,23,30.25,30.09,9,2,15,0.00
2013-4-4,49,40,36,35,30,18,92,71,31,30.25,29.99,11,3,15,0.00
2013-4-5,66,50,34,44,37,25,93,67,21,30.05,29.91,8,2,15,0.00
2013-4-6,69,52,32,40,34,30,92,58,24,30.20,30.05,10,2,12,0.00
2013-4-7,70,57,37,47,42,34,91,61,38,30.21,30.07,12,3,16,0.00
2013-4-8,76,62,45,56,50,42,91,68,40,30.13,30.02,19,3,21,0.00
2013-4-9,82,66,47,57,52,44,91,65,39,30.16,30.05,9,2,17,0.00
2013-4-10,84,69,51,59,55,48,91,64,38,30.06,29.90,11,3,22,0.00
2013-4-11,79,69,57,64,59,53,86,72,51,29.92,29.67,17,4,19,0.00
2013-4-12,79,53,59,65,15,-100,91,42,26,29.78,29.59,14,-226,25,0.86
2013-4-13,76,60,40,46,36,26,91,49,16,29.99,29.78,12,2,20,0.00
2013-4-14,73,59,40,52,43,36,90,60,30,30.06,29.94,6,2,11,0.00
2013-4-15,65,58,54,57,54,51,92,87,74,30.18,29.95,7,2,10,0.00
2013-4-16,78,66,57,61,57,54,90,75,49,30.25,30.14,8,2,12,0.00
2013-4-17,78,64,57,64,58,54,91,83,56,30.21,30.08,11,2,13,0.00
2013-4-18,80,66,56,64,59,54,93,78,49,30.12,29.93,9,2,17,0.00
2013-4-19,68,54,51,65,36,-100,90,74,63,29.93,29.70,9,-143,17,0.00
2013-4-20,65,52,36,39,33,28,92,53,28,30.25,29.89,7,2,17,7.92
2013-4-21,61,50,35,42,36,31,91,62,36,30.42,30.25,16,3,18,0.00
2013-4-22,62,51,41,39,36,32,84,59,34,30.41,30.19,10,4,15,0.00
2013-4-23,71,55,37,49,42,33,88,65,36,30.26,30.07,8,2,10,0.00
2013-4-24,73,60,46,57,52,43,92,77,55,30.12,29.97,18,4,22,0.00
2013-4-25,72,60,48,57,40,27,90,52,21,30.26,30.02,9,2,13,0.00
2013-4-26,69,55,36,47,37,29,90,56,28,30.41,30.26,10,2,14,0.00
2013-4-27,60,55,52,52,49,44,92,83,65,30.34,30.23,4,1,6,0.00
2013-4-28,53,35,51,51,0,-100,92,61,91,30.24,30.03,3,-333,5,0.00
2013-4-29,71,31,56,60,-25,-100,92,37,64,30.05,29.88,7,-525,10,0.00
2013-4-30,73,61,51,62,56,49,94,83,57,30.14,29.95,10,1,14,0.00
2013-5-1,66,60,52,56,54,49,92,81,67,30.25,30.15,9,3,15,0.00
2013-5-2,61,57,54,56,54,52,91,88,84,30.27,30.20,8,3,12,0.00
2013-5-3,64,59,55,54,52,50,90,79,68,30.21,30.07,11,4,17,0.00
2013-5-4,59,54,49,51,47,43,90,77,67,30.09,29.96,11,4,17,0.00
2013-5-5,57,50,48,55,46,-100,93,90,90,30.00,29.81,14,-6,22,0.00
2013-5-6,66,58,52,56,51,45,93,79,51,29.88,29.80,11,3,13,0.00
2013-5-7,69,54,42,53,48,40,93,80,44,29.93,29.83,7,2,13,0.00
2013-5-8,73,61,49,58,53,47,93,77,53,29.99,29.90,8,2,11,0.00
2013-5-9,80,64,48,60,53,46,93,71,40,30.06,29.97,7,1,16,0.00
2013-5-10,79,66,51,63,57,49,93,75,47,30.05,29.91,13,2,22,0.00
2013-5-11,76,67,60,64,60,57,92,78,61,29.93,29.75,10,3,15,0.00
2013-5-12,70,61,46,58,42,23,90,57,17,30.02,29.82,15,4,20,0.00
2013-5-13,68,53,36,41,34,25,91,55,20,30.17,30.02,14,3,19,0.00
2013-5-14,72,56,37,50,41,34,91,61,35,30.24,30.05,12,3,19,0.00
2013-5-15,87,71,50,62,56,47,90,63,41,30.05,29.89,9,2,17,0.00
2013-5-16,81,69,54,62,58,52,91,69,40,29.98,29.91,8,2,13,0.00
2013-5-17,83,70,55,63,59,53,93,70,45,30.05,29.97,8,2,12,0.00
2013-5-18,70,66,60,66,62,57,92,89,85,30.10,30.01,7,1,10,0.00
2013-5-19,75,68,65,68,65,62,92,88,74,30.08,29.97,5,1,9,0.00
2013-5-20,82,71,65,69,65,63,93,83,61,30.09,29.96,7,1,10,0.00
2013-5-21,86,73,60,70,65,58,94,78,52,30.00,29.88,9,1,14,0.00
2013-5-22,83,70,63,70,64,60,92,81,61,29.96,29.81,11,2,16,0.00
2013-5-23,78,68,62,69,63,60,93,85,69,29.92,29.79,7,2,11,0.00
2013-5-24,72,63,52,61,47,36,92,60,28,30.18,29.86,14,3,22,0.00
2013-5-25,77,62,43,48,41,34,86,51,24,30.28,30.13,8,2,12,0.00
2013-5-26,75,63,54,54,49,42,88,63,43,30.27,30.13,7,2,10,0.00
2013-5-27,81,66,50,62,55,48,93,71,44,30.24,30.09,8,1,13,0.00
2013-5-28,82,71,59,64,61,56,91,73,49,30.18,30.10,11,2,14,0.00
2013-5-29,83,72,59,67,62,56,91,72,47,30.19,30.10,10,2,12,0.00
2013-5-30,83,70,58,66,61,56,93,76,47,30.23,30.12,7,1,11,0.00
2013-5-31,84,72,60,67,63,57,93,75,49,30.19,30.06,8,2,13,0.00
2013-6-1,83,75,67,67,65,62,89,73,52,30.08,29.96,13,3,16,0.00
2013-6-2,77,71,66,71,66,64,93,85,78,30.00,29.86,12,2,13,0.00
2013-6-3,82,72,65,71,66,62,93,82,60,29.91,29.80,7,2,10,0.00
2013-6-4,81,72,65,68,65,63,93,80,55,30.03,29.91,9,2,13,0.00
2013-6-5,78,69,67,69,61,-100,92,82,76,30.06,29.92,8,-30,15,0.00
2013-6-6,76,70,67,70,67,65,93,90,81,29.94,29.75,7,2,10,0.00
2013-6-7,83,70,66,72,66,63,93,88,64,29.79,29.63,7,2,10,0.00
2013-6-8,82,72,64,69,66,62,93,80,62,30.04,29.79,7,1,9,0.00
2013-6-9,82,71,64,72,67,62,94,87,66,30.10,29.99,5,1,13,0.00
2013-6-10,77,71,68,70,67,66,93,89,74,30.02,29.85,9,3,17,0.00
2013-6-11,86,76,66,69,65,60,93,73,46,29.95,29.89,9,3,17,0.00
2013-6-12,89,76,62,76,69,60,94,80,62,29.97,29.84,7,2,11,0.00
2013-6-13,91,78,67,73,68,64,93,74,49,29.85,29.63,15,3,21,0.00
2013-6-14,82,72,58,64,57,53,89,62,38,30.00,29.74,15,3,19,0.00
2013-6-15,83,70,55,63,59,53,92,70,47,30.10,30.00,10,2,14,0.00
2013-6-16,84,73,61,67,63,59,91,73,50,30.10,29.97,9,3,15,0.00
2013-6-17,83,74,68,72,68,66,91,83,69,29.99,29.90,6,2,13,0.00
2013-6-18,83,72,67,72,68,64,93,87,70,29.91,29.73,12,3,20,0.00
2013-6-19,80,72,64,68,64,61,91,76,57,30.07,29.87,6,1,11,0.00
2013-6-20,81,71,62,69,64,60,94,81,59,30.18,30.07,8,2,14,0.00
2013-6-21,83,72,62,67,63,60,94,77,51,30.24,30.13,7,1,10,0.00
2013-6-22,84,71,58,67,63,56,94,76,50,30.19,30.07,6,1,9,0.00
2013-6-23,86,72,62,72,66,60,94,83,58,30.17,30.06,14,1,16,0.00
2013-6-24,85,75,67,74,70,65,94,84,61,30.17,30.04,10,2,12,0.00
2013-6-25,88,75,66,73,68,64,94,81,55,30.10,29.97,7,2,13,0.00
2013-6-26,87,75,67,74,70,65,94,82,58,30.00,29.86,9,2,15,0.00
2013-6-27,88,77,72,76,71,65,90,80,62,29.89,29.68,9,3,14,0.00
2013-6-28,92,78,66,77,70,64,93,76,46,29.74,29.54,8,2,13,0.00
2013-6-29,86,76,64,71,67,62,93,75,53,29.66,29.57,7,1,11,0.00
2013-6-30,84,74,67,71,68,65,93,82,56,29.79,29.64,0,0,0,0.00
2013-7-1,80,73,68,73,68,65,94,86,73,29.92,29.77,0,0,0,0.00
2013-7-2,77,72,68,72,69,66,94,90,83,30.09,29.92,0,0,0,0.00
2013-7-3,80,73,70,73,70,68,94,90,77,30.15,30.07,0,0,0,0.00
2013-7-8,84,75,70,76,58,-100,93,76,71,30.13,0.00,0,-43,0,0.00
2013-7-9,88,76,67,75,70,66,95,83,57,30.12,30.00,0,0,1,0.00
2013-7-10,83,74,69,76,71,68,95,89,73,30.09,29.90,0,0,0,0.00
2013-7-11,79,74,69,74,71,67,95,90,80,29.93,29.82,0,0,0,0.00
2013-7-12,81,72,66,73,69,63,95,88,71,29.98,29.84,0,0,0,0.00
2013-7-13,77,71,66,71,68,64,94,89,79,30.08,29.98,0,0,1,0.00
2013-7-14,82,74,69,73,70,67,94,90,71,30.24,30.06,0,0,0,0.00
2013-7-15,84,74,66,73,69,65,96,85,64,30.29,30.21,0,0,0,0.00
2013-7-16,89,78,67,75,70,65,95,79,56,30.27,30.17,0,0,0,0.00
2013-7-17,90,76,69,76,70,66,94,84,59,30.21,30.10,0,0,1,0.00
2013-7-18,88,77,67,76,71,65,95,81,61,30.14,30.02,0,0,0,0.00
2013-7-19,88,78,68,75,71,66,95,81,56,30.07,29.94,0,0,0,0.00
2013-7-20,85,75,70,76,72,68,95,89,72,29.98,29.90,0,0,1,0.00
2013-7-21,85,74,70,76,71,69,96,90,72,29.97,29.90,0,0,0,0.00
2013-7-22,83,75,69,75,71,68,96,87,72,29.97,29.79,0,0,0,0.00
2013-7-23,88,77,67,73,70,66,95,79,50,29.84,29.73,0,0,0,0.00
2013-7-24,88,77,67,74,69,65,94,79,60,29.81,29.71,0,0,0,0.00
2013-7-25,83,73,66,72,67,64,94,82,61,29.99,29.80,0,0,0,0.00
2013-7-26,83,74,67,73,69,65,95,84,63,30.06,29.96,0,0,0,0.00
2013-7-27,78,72,67,73,69,64,95,91,82,29.98,29.86,0,0,0,0.00
2013-7-28,82,73,67,73,69,65,96,88,67,29.96,29.88,0,0,0,0.00
2013-7-29,84,73,63,69,66,62,96,81,54,30.12,29.97,0,0,0,0.00
2013-7-30,82,72,64,73,67,62,93,82,64,30.19,30.09,0,0,0,0.00
2013-7-31,77,72,69,71,69,67,94,90,78,30.12,29.94,0,0,0,0.00
2013-8-1,84,75,71,75,71,69,95,87,70,29.95,29.84,0,0,0,0.00
2013-8-2,86,76,67,73,69,65,96,81,59,29.99,29.88,0,0,0,0.00
2013-8-3,86,76,68,75,70,67,96,82,54,29.98,29.89,0,0,0,0.00
2013-8-4,86,76,68,72,67,63,94,75,50,29.98,29.89,0,0,0,0.00
2013-8-5,83,74,66,72,67,63,92,79,66,30.04,29.93,0,0,0,0.00
2013-8-6,77,72,68,72,69,67,94,91,83,30.02,29.93,0,0,0,0.00
2013-8-7,79,73,69,73,70,68,96,91,79,30.05,29.97,0,0,0,0.00
2013-8-8,84,76,70,74,72,69,96,86,70,30.02,29.95,0,0,0,0.00
2013-8-9,88,77,71,77,73,69,96,86,68,30.03,29.96,0,0,0,0.00
2013-8-10,89,76,69,77,72,68,96,89,63,30.08,30.01,0,0,1,0.00
2013-8-11,88,75,68,75,71,67,97,88,60,30.09,30.00,0,0,0,0.00
2013-8-12,88,77,69,76,72,68,96,85,62,30.03,29.92,0,0,0,0.00
2013-8-13,87,74,68,75,71,67,97,89,63,29.92,29.77,0,0,0,0.00
2013-8-14,77,72,65,70,66,63,96,83,69,30.04,29.83,0,0,0,0.00
2013-8-15,70,65,60,63,60,57,95,83,67,30.13,30.03,0,0,0,0.00
2013-8-16,72,65,60,63,60,58,95,85,69,30.14,30.06,0,0,0,0.00
2013-8-17,67,64,61,63,61,59,96,91,82,30.17,30.11,0,0,0,0.00
2013-8-18,75,68,63,69,66,62,96,91,79,30.19,30.11,0,0,0,0.00
2013-8-19,75,69,66,70,67,65,96,92,79,30.16,30.06,0,0,0,0.00
2013-8-20,79,71,64,72,67,63,97,90,75,30.16,30.08,0,0,0,0.00
2013-8-21,80,72,68,74,70,66,97,92,78,30.20,30.07,0,0,0,0.00
2013-8-22,87,74,67,74,69,66,97,86,59,30.12,29.98,0,0,0,0.00
2013-8-23,87,72,64,73,68,63,97,88,59,30.03,29.93,0,0,1,0.00
2013-8-24,79,70,60,68,62,58,97,79,53,30.26,30.03,0,0,0,0.00
2013-8-25,79,67,58,64,60,57,97,81,54,30.36,30.25,0,0,0,0.00
2013-8-26,82,69,57,69,63,56,97,82,57,30.30,30.09,0,0,0,0.00
2013-8-27,88,72,60,74,66,59,97,83,53,30.11,29.96,0,0,0,0.00
2013-8-28,87,77,67,74,70,66,96,79,57,30.00,29.88,0,0,0,0.00
2013-8-29,92,79,67,75,70,66,97,78,47,29.93,29.84,0,0,0,0.00
2013-8-30,83,75,71,73,70,69,95,85,67,30.01,29.89,0,0,0,0.00
2013-8-31,86,74,66,75,70,65,97,88,64,29.93,29.83,0,0,0,0.00
2013-9-1,88,73,68,76,70,66,97,90,67,29.88,29.75,0,0,1,0.00
2013-9-2,88,75,65,75,70,64,98,85,58,29.87,29.77,0,0,0,0.00
2013-9-3,86,75,68,72,68,65,96,81,53,29.93,29.77,0,0,0,0.00
2013-9-4,84,73,62,71,66,61,97,80,57,30.06,29.93,0,0,0,0.00
2013-9-5,86,74,63,71,66,60,97,79,46,30.09,30.01,0,0,0,0.00
2013-9-6,81,70,60,67,62,58,95,77,54,30.16,30.04,0,0,0,0.00
2013-9-7,82,70,62,70,64,61,97,82,58,30.11,29.95,0,0,0,0.00
2013-9-8,85,72,60,71,66,59,97,81,51,29.96,29.89,0,0,0,0.00
2013-9-9,85,74,65,73,68,64,97,83,57,30.10,29.96,0,0,0,0.00
2013-9-10,88,74,62,73,67,62,97,82,51,30.20,30.10,0,0,0,0.00
2013-9-11,87,74,64,73,68,63,97,82,56,30.18,30.04,0,0,0,0.00
2013-9-12,87,73,66,72,69,65,97,88,54,30.04,29.82,0,0,1,0.00
2013-9-13,82,71,58,69,62,54,97,74,46,29.88,29.76,0,0,0,0.00
2013-9-14,76,63,52,61,55,50,96,77,51,30.09,29.88,0,0,0,0.00
2013-9-15,78,64,54,67,60,53,97,86,64,30.19,30.09,0,0,0,0.00
2013-9-16,83,70,60,70,63,59,97,80,48,30.12,30.02,0,0,0,0.00
2013-9-17,71,67,63,62,58,54,87,74,62,30.27,30.12,0,0,0,0.00
2013-9-18,70,64,57,61,58,54,92,80,63,30.27,30.14,0,0,0,0.00
2013-9-19,80,68,58,67,62,57,97,83,60,30.16,30.05,0,0,0,0.00
2013-9-20,85,72,61,69,65,60,97,82,53,30.06,29.88,0,0,0,0.00
2013-9-21,71,66,62,69,65,61,98,96,93,29.89,29.67,0,0,0,0.00
2013-9-22,78,65,54,62,58,53,98,80,44,29.88,29.70,0,0,0,0.00
2013-9-23,74,63,55,62,57,54,97,84,58,30.03,29.88,0,0,0,0.00
2013-9-24,75,65,55,64,60,54,97,85,64,30.05,29.91,0,0,0,0.00
2013-9-25,65,62,60,62,61,59,97,94,89,29.91,29.85,0,0,0,0.00
2013-9-26,75,63,54,63,58,53,98,84,54,30.02,29.86,0,0,0,0.00
2013-9-27,75,63,52,60,56,51,97,80,55,30.15,30.02,0,0,0,0.00
2013-9-28,71,61,52,58,55,51,97,82,60,30.23,30.13,0,0,0,0.00
2013-9-29,72,62,55,60,56,53,95,83,61,30.16,30.01,0,0,0,0.00
2013-9-30,75,64,54,62,58,53,97,82,54,30.08,29.97,0,0,0,0.00
2013-10-1,80,66,54,64,59,53,98,81,50,30.12,30.01,0,0,0,0.00
2013-10-2,82,66,55,67,60,54,98,83,50,30.13,30.03,0,0,0,0.00
2013-10-3,82,68,56,66,61,55,98,82,47,30.11,30.02,0,0,0,0.00
2013-10-4,84,68,56,70,62,55,98,83,51,30.12,30.04,0,0,0,0.00
2013-10-5,85,70,59,68,63,58,98,82,52,30.10,29.99,0,0,0,0.00
2013-10-6,81,68,58,68,63,57,98,85,57,30.02,29.85,0,0,0,0.00
2013-10-7,76,66,54,68,62,52,97,86,67,29.98,29.77,0,0,1,0.00
2013-10-8,69,59,50,54,50,47,95,75,54,30.19,29.98,0,0,0,0.00
2013-10-9,73,58,48,52,47,43,96,71,35,30.22,30.09,0,0,0,0.00
2013-10-10,78,60,43,58,51,42,98,76,47,30.12,29.96,0,0,0,0.00
2013-10-11,80,65,53,59,55,51,95,74,41,29.98,29.88,0,0,0,0.00
2013-10-12,73,62,51,64,57,50,97,86,60,30.07,29.94,0,0,0,0.00
2013-10-13,74,66,61,65,62,60,96,87,72,30.18,30.07,0,0,0,0.00
2013-10-14,69,64,57,62,60,56,97,87,75,30.21,30.12,0,0,0,0.00
2013-10-15,69,61,53,59,56,52,97,86,68,30.18,30.03,0,0,0,0.00
2013-10-16,70,60,50,61,56,50,98,87,64,30.06,29.94,0,0,0,0.00
2013-10-17,69,62,59,64,61,58,98,94,82,29.95,29.82,0,0,0,0.00
2013-10-18,69,59,49,61,55,48,98,87,68,30.01,29.87,0,0,0,0.00
2013-10-19,63,57,48,59,56,47,98,94,80,29.95,29.81,0,0,0,0.00
2013-10-20,65,52,41,51,45,39,97,80,48,30.08,29.91,0,0,0,0.00
2013-10-21,67,52,39,54,47,38,98,86,59,30.14,29.98,0,0,0,0.00
2013-10-22,67,52,52,56,39,-100,97,79,61,30.00,29.78,0,-94,0,0.00
2013-10-23,62,51,37,51,40,31,98,69,39,30.03,29.72,0,0,0,0.00
2013-10-24,58,44,29,44,35,28,97,75,45,30.16,30.03,0,0,0,0.00
2013-10-25,53,41,30,38,31,26,94,71,40,30.39,30.16,0,0,0,0.00
2013-10-26,56,41,25,38,32,24,96,73,42,30.38,30.07,0,0,0,0.00
2013-10-27,68,52,37,50,44,36,96,75,51,30.12,30.03,0,0,0,0.00
2013-10-28,70,46,46,58,24,-100,97,68,56,30.23,30.09,0,-179,0,0.00
2013-10-29,73,58,46,55,52,46,98,82,50,30.31,30.21,0,0,0,0.00
2013-10-30,77,61,51,60,54,50,97,82,50,30.26,30.12,0,0,0,0.00
2013-10-31,55,18,51,54,-49,-100,98,33,95,30.15,29.86,0,-662,0,0.00
2013-11-1,68,39,53,63,-2,-100,97,55,79,29.86,29.63,0,-383,0,0.00
2013-11-2,68,53,40,52,43,36,98,73,37,29.98,29.70,0,0,0,0.00
2013-11-3,63,46,34,43,37,33,97,76,35,30.37,29.98,0,0,0,0.00
2013-11-4,58,43,32,39,34,30,96,74,39,30.51,30.36,0,0,0,0.00
2013-11-5,58,44,31,48,39,29,96,82,52,30.57,30.42,0,0,0,0.00
2013-11-6,67,45,47,56,23,-100,97,71,65,30.43,30.12,0,-183,0,0.00
2013-11-7,70,45,39,59,22,-100,98,62,26,30.13,29.95,0,-147,0,0.00
2013-11-8,60,43,30,33,28,20,89,62,23,30.32,30.14,0,0,0,0.00
2013-11-9,57,43,26,36,30,25,95,65,36,30.38,30.20,0,0,0,0.00
2013-11-10,71,51,34,40,29,-100,95,53,22,30.22,30.10,0,-32,0,0.00
2013-11-11,61,44,30,34,26,-100,90,58,25,30.34,30.14,0,-21,0,0.00
2013-11-12,64,40,27,38,26,-100,93,63,31,30.47,30.07,0,-21,0,0.00
2013-11-13,50,32,20,22,11,-100,85,53,25,30.54,30.45,0,-52,0,0.00
2013-11-14,58,35,19,27,19,-100,94,62,21,30.49,30.33,0,-21,0,0.00
2013-11-15,56,40,25,45,28,-100,96,70,39,30.34,30.20,0,-31,0,0.00
2013-11-16,63,50,46,54,41,-100,97,84,73,30.27,30.17,0,-64,0,0.00
2013-11-17,60,53,53,57,45,-100,98,88,88,30.20,29.88,0,-63,0,0.00
2013-11-18,72,56,43,61,36,-100,98,59,21,29.98,29.81,0,-62,0,0.00
2013-11-19,56,43,34,33,24,-100,85,54,28,30.26,29.98,0,-32,0,0.00
2013-11-20,51,40,33,33,24,-100,88,60,44,30.45,30.25,0,-42,0,0.00
2013-11-21,52,44,42,47,31,-100,96,72,64,30.48,30.37,0,-63,0,0.00
2013-11-22,62,52,48,58,45,-100,97,88,85,30.40,30.10,0,-52,0,0.00
2013-11-23,59,49,38,55,35,-100,98,69,42,30.20,30.06,0,-53,0,0.00
2013-11-24,42,32,22,23,7,-100,79,43,22,30.53,30.20,0,-42,0,0.00
2013-11-25,40,29,18,19,9,-100,89,52,29,30.57,30.35,0,-42,0,0.00
2013-11-26,43,34,31,42,19,-100,97,80,49,30.33,29.63,0,-116,0,0.00
2013-11-27,45,32,23,44,12,-100,97,66,53,30.21,29.55,0,-126,0,0.00
2013-11-28,47,28,17,28,17,-100,94,72,37,30.49,30.21,0,-32,0,0.00
2013-11-29,54,33,21,31,18,-100,96,68,30,30.61,30.48,0,-52,0,0.00
2013-11-30,47,32,24,27,19,-100,92,70,41,30.65,30.39,0,-42,0,0.00
2013-12-1,58,36,24,38,24,-100,94,73,44,30.39,30.04,0,-42,0,0.00
2013-12-2,60,41,28,41,28,-100,97,71,46,30.03,29.81,0,-52,0,0.00
2013-12-3,58,48,44,51,40,-100,97,84,74,29.94,29.85,5,-52,8,0.10
2013-12-4,59,55,52,58,54,51,98,97,94,30.05,29.93,3,0,6,0.04
2013-12-5,67,62,59,66,62,58,98,97,93,30.07,29.96,8,2,16,0.25
2013-12-6,71,68,62,66,64,60,96,88,75,30.00,29.91,17,6,21,0.23
2013-12-7,61,54,46,59,49,38,97,83,73,30.37,29.95,10,3,13,0.02
2013-12-8,45,37,33,39,35,32,96,92,77,30.40,30.28,8,3,11,0.16
2013-12-9,43,38,34,42,37,32,98,97,95,30.28,30.06,3,1,6,0.54
2013-12-10,53,42,26,48,36,24,98,82,47,30.32,29.92,17,2,20,0.11
2013-12-11,51,34,22,31,26,20,95,76,40,30.45,30.30,9,2,12,0.00
2013-12-12,47,36,26,25,17,2,89,51,16,30.42,30.31,10,2,13,0.00
2013-12-13,50,34,20,32,23,18,93,69,32,30.39,30.26,9,1,10,0.00
2013-12-14,40,38,36,38,35,31,96,89,75,30.27,29.81,8,2,13,1.03
2013-12-15,49,40,28,39,33,26,97,79,52,30.12,29.77,10,2,13,0.00
2013-12-16,58,40,23,35,29,22,96,69,37,30.17,30.08,10,2,16,0.01
2013-12-17,62,46,27,37,32,22,95,63,37,30.13,29.91,11,3,22,0.00
2013-12-18,53,38,26,25,19,5,88,52,14,30.29,30.08,12,2,13,0.00
2013-12-19,62,40,23,31,25,21,94,62,22,30.32,30.21,11,2,14,0.00
2013-12-20,60,46,32,46,38,29,92,75,53,30.23,30.12,14,2,16,0.00
2013-12-21,60,53,46,59,51,44,98,93,81,30.14,29.98,3,0,5,0.04
2013-12-22,69,63,58,65,61,57,98,95,86,30.03,29.94,12,3,23,1.08
2013-12-23,60,54,42,60,51,35,98,90,76,30.16,29.95,7,2,10,0.49
2013-12-24,43,36,27,34,24,16,81,63,44,30.45,30.16,12,3,18,0.14
2013-12-25,38,27,18,21,16,9,92,69,33,30.56,30.41,9,1,9,0.13
2013-12-26,52,32,20,31,23,18,92,74,37,30.42,30.26,3,0,7,0.22
2013-12-27,52,33,22,30,24,20,96,73,32,30.48,30.37,5,1,7,0.06
2013-12-28,49,35,22,38,29,20,96,79,48,30.43,30.15,4,1,7,0.22
2013-12-29,58,45,39,51,42,36,97,87,60,30.13,29.77,9,2,11,0.80
2013-12-30,53,42,32,43,37,31,97,84,63,30.12,29.95,5,1,8,0.00
2013-12-31,50,38,29,37,27,19,95,68,31,30.37,30.10,8,2,18,0.00
2014-1-1,48,35,26,32,28,24,94,76,45,30.40,30.16,9,1,11,0.00
2014-1-2,45,38,28,44,34,16,96,88,60,30.16,29.66,18,3,27,0.08